Time,TemperatureF,DewpointF,PressureIn,WindDirection,WindDirectionDegrees,WindSpeedMPH,WindSpeedGustMPH,Humidity,HourlyPrecipIn,Conditions,Clouds,dailyrainin,SoftwareType,DateUTC
2013-05-24 00:22:00,59.0,54.0,29.93,North,0,0.0,-999.0,85,0.00,,,-99.99,,2013-05-24 07:22:00,
2013-05-24 00:31:00,59.0,54.0,29.93,North,0,0.0,-999.0,85,0.00,,,-99.99,,2013-05-24 07:31:00,
2013-05-24 00:42:00,59.0,54.0,29.93,North,0,0.0,-999.0,85,0.00,,,-99.99,,2013-05-24 07:42:00,
2013-05-24 00:52:00,59.0,54.0,29.93,North,0,0.0,-999.0,85,0.00,,,-99.99,,2013-05-24 07:52:00,
2013-05-24 01:22:00,58.0,53.0,29.92,East,90,1.0,-999.0,83,0.00,,,-99.99,,2013-05-24 08:22:00,
2013-05-24 01:32:00,58.0,53.0,29.92,East,90,1.0,-999.0,83,0.00,,,-99.99,,2013-05-24 08:32:00,
2013-05-24 01:41:00,58.0,53.0,29.92,East,90,1.0,-999.0,83,0.00,,,-99.99,,2013-05-24 08:41:00,
2013-05-24 01:51:00,58.0,53.0,29.92,East,90,1.0,-999.0,83,0.00,,,-99.99,,2013-05-24 08:51:00,
2013-05-24 02:21:00,57.0,52.0,29.91,ESE,110,1.0,-999.0,82,0.00,,,-99.99,,2013-05-24 09:21:00,
2013-05-24 02:32:00,57.0,52.0,29.91,ESE,110,1.0,-999.0,82,0.00,,,-99.99,,2013-05-24 09:32:00,
2013-05-24 02:42:00,57.0,52.0,29.91,ESE,110,1.0,-999.0,82,0.00,,,-99.99,,2013-05-24 09:42:00,
2013-05-24 02:52:00,57.0,52.0,29.91,ESE,110,1.0,-999.0,82,0.00,,,-99.99,,2013-05-24 09:52:00,
2013-05-24 03:22:00,56.0,50.0,29.91,East,90,1.0,-999.0,81,0.00,,,-99.99,,2013-05-24 10:22:00,
2013-05-24 03:32:00,56.0,50.0,29.91,East,90,1.0,-999.0,81,0.00,,,-99.99,,2013-05-24 10:32:00,
2013-05-24 03:42:00,56.0,50.0,29.91,East,90,1.0,-999.0,81,0.00,,,-99.99,,2013-05-24 10:42:00,
2013-05-24 03:52:00,56.0,50.0,29.91,East,90,1.0,-999.0,81,0.00,,,-99.99,,2013-05-24 10:52:00,
2013-05-24 04:22:00,55.0,50.0,29.92,East,90,1.0,-999.0,82,0.00,,,-99.99,,2013-05-24 11:22:00,
2013-05-24 04:32:00,55.0,50.0,29.92,East,90,1.0,-999.0,82,0.00,,,-99.99,,2013-05-24 11:32:00,
2013-05-24 04:42:00,55.0,50.0,29.92,East,90,1.0,-999.0,82,0.00,,,-99.99,,2013-05-24 11:42:00,
2013-05-24 04:51:00,55.0,50.0,29.92,East,90,1.0,-999.0,82,0.00,,,-99.99,,2013-05-24 11:51:00,
2013-05-24 05:21:00,56.0,52.0,29.93,North,0,0.0,-999.0,86,0.00,,,-99.99,,2013-05-24 12:21:00,
2013-05-24 05:32:00,56.0,52.0,29.93,North,0,0.0,-999.0,86,0.00,,,-99.99,,2013-05-24 12:32:00,
2013-05-24 05:42:00,56.0,52.0,29.93,North,0,0.0,-999.0,86,0.00,,,-99.99,,2013-05-24 12:42:00,
2013-05-24 05:52:00,56.0,52.0,29.93,North,0,0.0,-999.0,86,0.00,,,-99.99,,2013-05-24 12:52:00,
2013-05-24 06:21:00,56.0,52.0,29.94,South,170,1.0,-999.0,86,0.00,,,-99.99,,2013-05-24 13:21:00,
2013-05-24 06:32:00,56.0,52.0,29.94,South,170,1.0,-999.0,86,0.00,,,-99.99,,2013-05-24 13:32:00,
2013-05-24 06:41:00,56.0,52.0,29.94,South,170,1.0,-999.0,86,0.00,,,-99.99,,2013-05-24 13:41:00,
2013-05-24 06:52:00,56.0,52.0,29.94,South,170,1.0,-999.0,86,0.00,,,-99.99,,2013-05-24 13:52:00,
2013-05-24 07:21:00,57.0,53.0,29.95,North,0,0.0,-999.0,86,0.00,,,-99.99,,2013-05-24 14:21:00,
2013-05-24 07:31:00,57.0,53.0,29.95,North,0,0.0,-999.0,86,0.00,,,-99.99,,2013-05-24 14:31:00,
2013-05-24 07:42:00,57.0,53.0,29.95,North,0,0.0,-999.0,86,0.00,,,-99.99,,2013-05-24 14:42:00,
2013-05-24 07:52:00,57.0,53.0,29.95,North,0,0.0,-999.0,86,0.00,,,-99.99,,2013-05-24 14:52:00,
2013-05-24 08:21:00,58.0,53.0,29.96,South,170,1.0,-999.0,84,0.00,,,-99.99,,2013-05-24 15:21:00,
2013-05-24 08:32:00,58.0,53.0,29.96,South,170,1.0,-999.0,84,0.00,,,-99.99,,2013-05-24 15:32:00,
2013-05-24 08:43:00,58.0,53.0,29.96,South,170,1.0,-999.0,84,0.00,,,-99.99,,2013-05-24 15:43:00,
2013-05-24 08:52:00,58.0,53.0,29.96,South,170,1.0,-999.0,84,0.00,,,-99.99,,2013-05-24 15:52:00,
2013-05-24 09:22:00,59.0,53.0,29.98,SW,220,1.0,-999.0,81,0.00,,,-99.99,,2013-05-24 16:22:00,
2013-05-24 09:32:00,59.0,53.0,29.98,SW,220,1.0,-999.0,81,0.00,,,-99.99,,2013-05-24 16:32:00,
2013-05-24 09:42:00,59.0,53.0,29.98,SW,220,1.0,-999.0,81,0.00,,,-99.99,,2013-05-24 16:42:00,
2013-05-24 09:52:00,59.0,53.0,29.98,SW,220,1.0,-999.0,81,0.00,,,-99.99,,2013-05-24 16:52:00,
2013-05-24 10:22:00,59.0,52.0,29.98,West,270,4.0,-999.0,79,0.00,,,-99.99,,2013-05-24 17:22:00,
2013-05-24 10:32:00,59.0,52.0,29.98,West,270,4.0,-999.0,79,0.00,,,-99.99,,2013-05-24 17:32:00,
2013-05-24 10:41:00,59.0,52.0,29.98,West,270,4.0,-999.0,79,0.00,,,-99.99,,2013-05-24 17:41:00,
2013-05-24 10:52:00,59.0,52.0,29.98,West,270,4.0,-999.0,79,0.00,,,-99.99,,2013-05-24 17:52:00,
2013-05-24 11:21:00,62.0,53.0,29.99,West,270,3.0,-999.0,73,0.00,,,-99.99,,2013-05-24 18:21:00,
2013-05-24 11:32:00,62.0,53.0,29.99,West,270,3.0,-999.0,73,0.00,,,-99.99,,2013-05-24 18:32:00,
2013-05-24 11:41:00,62.0,53.0,29.99,West,270,3.0,-999.0,73,0.00,,,-99.99,,2013-05-24 18:41:00,
2013-05-24 11:51:00,62.0,53.0,29.99,West,270,3.0,-999.0,73,0.00,,,-99.99,,2013-05-24 18:51:00,
2013-05-24 12:21:00,64.0,53.0,29.99,SW,230,3.0,-999.0,68,0.00,,,-99.99,,2013-05-24 19:21:00,
2013-05-24 12:32:00,64.0,53.0,29.99,SW,230,3.0,-999.0,68,0.00,,,-99.99,,2013-05-24 19:32:00,
2013-05-24 12:41:00,64.0,53.0,29.99,SW,230,3.0,-999.0,68,0.00,,,-99.99,,2013-05-24 19:41:00,
2013-05-24 12:52:00,64.0,53.0,29.99,SW,230,3.0,-999.0,68,0.00,,,-99.99,,2013-05-24 19:52:00,
2013-05-24 13:21:00,65.0,54.0,29.98,SW,220,4.0,-999.0,67,0.00,,,-99.99,,2013-05-24 20:21:00,
2013-05-24 13:32:00,65.0,54.0,29.98,SW,220,4.0,-999.0,67,0.00,,,-99.99,,2013-05-24 20:32:00,
2013-05-24 13:41:00,65.0,54.0,29.98,SW,220,4.0,-999.0,67,0.00,,,-99.99,,2013-05-24 20:41:00,
2013-05-24 13:51:00,65.0,54.0,29.98,SW,220,4.0,-999.0,67,0.00,,,-99.99,,2013-05-24 20:51:00,
2013-05-24 14:21:00,66.0,54.0,29.98,WNW,290,7.0,-999.0,65,0.00,,,-99.99,,2013-05-24 21:21:00,
2013-05-24 14:32:00,66.0,54.0,29.98,WNW,290,7.0,-999.0,65,0.00,,,-99.99,,2013-05-24 21:32:00,
2013-05-24 14:42:00,66.0,54.0,29.98,WNW,290,7.0,-999.0,65,0.00,,,-99.99,,2013-05-24 21:42:00,
2013-05-24 14:52:00,66.0,54.0,29.98,WNW,290,7.0,-999.0,65,0.00,,,-99.99,,2013-05-24 21:52:00,
2013-05-24 15:22:00,66.0,54.0,29.97,West,260,5.0,-999.0,65,0.00,,,-99.99,,2013-05-24 22:22:00,
2013-05-24 15:33:00,66.0,54.0,29.97,West,260,5.0,-999.0,65,0.00,,,-99.99,,2013-05-24 22:33:00,
2013-05-24 15:42:00,66.0,54.0,29.97,West,260,5.0,-999.0,65,0.00,,,-99.99,,2013-05-24 22:42:00,
2013-05-24 15:52:00,66.0,54.0,29.97,West,260,5.0,-999.0,65,0.00,,,-99.99,,2013-05-24 22:52:00,
2013-05-24 16:22:00,67.0,54.0,29.96,WSW,250,4.0,-999.0,64,0.00,,,-99.99,,2013-05-24 23:22:00,
2013-05-24 16:32:00,67.0,54.0,29.96,WSW,250,4.0,-999.0,64,0.00,,,-99.99,,2013-05-24 23:32:00,
2013-05-24 16:42:00,67.0,54.0,29.96,WSW,250,4.0,-999.0,64,0.00,,,-99.99,,2013-05-24 23:42:00,
2013-05-24 16:52:00,67.0,54.0,29.96,WSW,250,4.0,-999.0,64,0.00,,,-99.99,,2013-05-24 23:52:00,
2013-05-24 17:21:00,67.0,53.0,29.95,West,280,3.0,-999.0,60,0.00,,,-99.99,,2013-05-25 00:21:00,
2013-05-24 17:32:00,67.0,53.0,29.95,West,280,3.0,-999.0,60,0.00,,,-99.99,,2013-05-25 00:32:00,
2013-05-24 17:41:00,67.0,53.0,29.95,West,280,3.0,-999.0,60,0.00,,,-99.99,,2013-05-25 00:41:00,
2013-05-24 17:51:00,67.0,53.0,29.95,West,280,3.0,-999.0,60,0.00,,,-99.99,,2013-05-25 00:51:00,
2013-05-24 18:22:00,67.0,53.0,29.93,SW,230,3.0,-999.0,61,0.00,,,-99.99,,2013-05-25 01:22:00,
2013-05-24 18:32:00,67.0,53.0,29.93,SW,230,3.0,-999.0,61,0.00,,,-99.99,,2013-05-25 01:32:00,
2013-05-24 18:41:00,67.0,53.0,29.93,SW,230,3.0,-999.0,61,0.00,,,-99.99,,2013-05-25 01:41:00,
2013-05-24 18:52:00,67.0,53.0,29.93,SW,230,3.0,-999.0,61,0.00,,,-99.99,,2013-05-25 01:52:00,
2013-05-24 19:21:00,64.0,53.0,29.93,West,280,4.0,-999.0,67,0.00,,,-99.99,,2013-05-25 02:21:00,
2013-05-24 19:31:00,64.0,53.0,29.93,West,280,4.0,-999.0,67,0.00,,,-99.99,,2013-05-25 02:31:00,
2013-05-24 19:42:00,64.0,53.0,29.93,West,280,4.0,-999.0,67,0.00,,,-99.99,,2013-05-25 02:42:00,
2013-05-24 19:51:00,64.0,53.0,29.93,West,280,4.0,-999.0,67,0.00,,,-99.99,,2013-05-25 02:51:00,
2013-05-24 20:21:00,57.0,51.0,29.94,West,270,1.0,-999.0,79,0.00,,,-99.99,,2013-05-25 03:21:00,
2013-05-24 20:32:00,57.0,51.0,29.94,West,270,1.0,-999.0,79,0.00,,,-99.99,,2013-05-25 03:32:00,
2013-05-24 20:43:00,57.0,51.0,29.94,West,270,1.0,-999.0,79,0.00,,,-99.99,,2013-05-25 03:43:00,
2013-05-24 20:53:00,57.0,51.0,29.94,West,270,1.0,-999.0,79,0.00,,,-99.99,,2013-05-25 03:53:00,
2013-05-24 21:23:00,55.0,50.0,29.95,North,0,0.0,-999.0,84,0.00,,,-99.99,,2013-05-25 04:23:00,
2013-05-24 21:33:00,55.0,50.0,29.95,North,0,0.0,-999.0,84,0.00,,,-99.99,,2013-05-25 04:33:00,
2013-05-24 21:43:00,55.0,50.0,29.95,North,0,0.0,-999.0,84,0.00,,,-99.99,,2013-05-25 04:43:00,
2013-05-24 21:52:00,55.0,50.0,29.95,North,0,0.0,-999.0,84,0.00,,,-99.99,,2013-05-25 04:52:00,
2013-05-24 22:22:00,55.0,51.0,29.97,North,0,0.0,-999.0,85,0.00,,,-99.99,,2013-05-25 05:22:00,
2013-05-24 22:32:00,55.0,51.0,29.97,North,0,0.0,-999.0,85,0.00,,,-99.99,,2013-05-25 05:32:00,
2013-05-24 22:42:00,55.0,51.0,29.97,North,0,0.0,-999.0,85,0.00,,,-99.99,,2013-05-25 05:42:00,
2013-05-24 22:52:00,55.0,51.0,29.97,North,0,0.0,-999.0,85,0.00,,,-99.99,,2013-05-25 05:52:00,
2013-05-24 23:21:00,54.0,50.0,29.98,North,0,0.0,-999.0,87,0.00,,,-99.99,,2013-05-25 06:21:00,
2013-05-24 23:32:00,54.0,50.0,29.98,North,0,0.0,-999.0,87,0.00,,,-99.99,,2013-05-25 06:32:00,
2013-05-24 23:42:00,54.0,50.0,29.98,North,0,0.0,-999.0,87,0.00,,,-99.99,,2013-05-25 06:42:00,
2013-05-24 23:52:00,54.0,50.0,29.98,North,0,0.0,-999.0,87,0.00,,,-99.99,,2013-05-25 06:52:00,